Time,TemperatureF,DewpointF,PressureIn,WindDirection,WindDirectionDegrees,WindSpeedMPH,WindSpeedGustMPH,Humidity,HourlyPrecipIn,Conditions,Clouds,dailyrainin,SoftwareType,DateUTC
2013-06-28 00:11:00,81.0,71.0,-100.00,ENE,70,0.0,0.0,70,-99.99,,,-99.99,,2013-06-28 05:11:00,
2013-06-28 00:22:00,81.0,71.0,-100.00,ENE,70,0.0,0.0,70,-99.99,,,-99.99,,2013-06-28 05:22:00,
2013-06-28 00:33:00,81.0,70.0,-100.00,East,80,0.0,0.0,70,-99.99,,,-99.99,,2013-06-28 05:33:00,
2013-06-28 00:43:00,81.0,70.0,-100.00,ENE,75,0.0,0.0,70,-99.99,,,-99.99,,2013-06-28 05:43:00,
2013-06-28 00:53:00,81.0,70.0,-100.00,ENE,75,0.0,0.0,70,-99.99,,,-99.99,,2013-06-28 05:53:00,
2013-06-28 01:22:00,81.0,70.0,-100.00,East,85,0.0,0.0,71,-99.99,,,-99.99,,2013-06-28 06:22:00,
2013-06-28 01:42:00,79.0,70.0,-100.00,SE,135,0.0,0.0,75,-99.99,,,-99.99,,2013-06-28 06:42:00,
2013-06-28 01:52:00,79.0,70.0,-100.00,SE,135,0.0,0.0,75,-99.99,,,-99.99,,2013-06-28 06:52:00,
2013-06-28 02:11:00,79.0,71.0,-100.00,East,85,0.0,0.0,77,-99.99,,,-99.99,,2013-06-28 07:11:00,
2013-06-28 02:22:00,79.0,71.0,-100.00,East,85,0.0,0.0,77,-99.99,,,-99.99,,2013-06-28 07:22:00,
2013-06-28 02:43:00,79.0,70.0,-100.00,East,90,0.0,0.0,75,-99.99,,,-99.99,,2013-06-28 07:43:00,
2013-06-28 02:52:00,79.0,70.0,-100.00,East,90,0.0,0.0,75,-99.99,,,-99.99,,2013-06-28 07:52:00,
2013-06-28 03:11:00,77.0,71.0,-100.00,SSE,160,0.0,0.0,83,-99.99,,,-99.99,,2013-06-28 08:11:00,
2013-06-28 03:22:00,77.0,71.0,-100.00,SSE,160,0.0,0.0,83,-99.99,,,-99.99,,2013-06-28 08:22:00,
2013-06-28 03:43:00,77.0,71.0,-100.00,SSE,150,0.0,0.0,83,-99.99,,,-99.99,,2013-06-28 08:43:00,
2013-06-28 03:52:00,77.0,71.0,-100.00,SSE,150,0.0,0.0,83,-99.99,,,-99.99,,2013-06-28 08:52:00,
2013-06-28 04:11:00,76.0,72.0,-100.00,NE,55,0.0,0.0,85,-99.99,,,-99.99,,2013-06-28 09:11:00,
2013-06-28 04:22:00,76.0,72.0,-100.00,NE,55,0.0,0.0,85,-99.99,,,-99.99,,2013-06-28 09:22:00,
2013-06-28 04:52:00,76.0,72.0,-100.00,East,90,0.0,0.0,88,-99.99,,,-99.99,,2013-06-28 09:52:00,
2013-06-28 05:12:00,76.0,72.0,-100.00,ESE,110,0.0,0.0,88,-99.99,,,-99.99,,2013-06-28 10:12:00,
2013-06-28 05:22:00,76.0,72.0,-100.00,ESE,110,0.0,0.0,88,-99.99,,,-99.99,,2013-06-28 10:22:00,
2013-06-28 05:42:00,78.0,69.0,-100.00,North,5,0.0,0.0,76,-99.99,,,-99.99,,2013-06-28 10:42:00,
2013-06-28 05:52:00,78.0,69.0,-100.00,North,5,0.0,0.0,76,-99.99,,,-99.99,,2013-06-28 10:52:00,
2013-06-28 06:11:00,77.0,70.0,-100.00,NE,40,0.0,0.0,80,-99.99,,,-99.99,,2013-06-28 11:11:00,
2013-06-28 06:22:00,77.0,70.0,-100.00,NE,40,0.0,0.0,80,-99.99,,,-99.99,,2013-06-28 11:22:00,
2013-06-28 06:43:00,76.0,70.0,-100.00,NE,35,0.0,0.0,81,-99.99,,,-99.99,,2013-06-28 11:43:00,
2013-06-28 06:53:00,76.0,70.0,-100.00,NE,35,0.0,0.0,81,-99.99,,,-99.99,,2013-06-28 11:53:00,
2013-06-28 07:12:00,76.0,70.0,-100.00,ENE,60,0.0,0.0,81,-99.99,,,-99.99,,2013-06-28 12:12:00,
2013-06-28 07:22:00,76.0,70.0,-100.00,ENE,60,0.0,0.0,81,-99.99,,,-99.99,,2013-06-28 12:22:00,
2013-06-28 07:43:00,77.0,70.0,-100.00,NE,55,0.0,0.0,80,-99.99,,,-99.99,,2013-06-28 12:43:00,
2013-06-28 07:52:00,77.0,70.0,-100.00,NE,55,0.0,0.0,80,-99.99,,,-99.99,,2013-06-28 12:52:00,
2013-06-28 08:23:00,78.0,71.0,-100.00,East,80,0.0,0.0,80,-99.99,,,-99.99,,2013-06-28 13:23:00,
2013-06-28 08:53:00,79.0,71.0,-100.00,ESE,105,0.0,0.0,76,-99.99,,,-99.99,,2013-06-28 13:53:00,
2013-06-28 09:12:00,82.0,71.0,-100.00,ESE,105,0.0,0.0,70,-99.99,,,-99.99,,2013-06-28 14:12:00,
2013-06-28 09:22:00,82.0,71.0,-100.00,ESE,105,0.0,0.0,70,-99.99,,,-99.99,,2013-06-28 14:22:00,
2013-06-28 09:44:00,83.0,69.0,-100.00,East,95,0.0,0.0,63,-99.99,,,-99.99,,2013-06-28 14:44:00,
2013-06-28 09:53:00,83.0,69.0,-100.00,East,95,0.0,0.0,63,-99.99,,,-99.99,,2013-06-28 14:53:00,
2013-06-28 10:11:00,84.0,68.0,-100.00,East,90,0.0,0.0,59,-99.99,,,-99.99,,2013-06-28 15:11:00,
2013-06-28 10:24:00,84.0,68.0,-100.00,East,90,0.0,0.0,59,-99.99,,,-99.99,,2013-06-28 15:24:00,
2013-06-28 10:52:00,84.0,67.0,-100.00,East,85,0.0,0.0,57,-99.99,,,-99.99,,2013-06-28 15:52:00,
2013-06-28 11:24:00,85.0,69.0,-100.00,ENE,75,0.0,0.0,60,-99.99,,,-99.99,,2013-06-28 16:24:00,
2013-06-28 11:53:00,86.0,68.0,-100.00,East,85,0.0,0.0,55,-99.99,,,-99.99,,2013-06-28 16:53:00,
2013-06-28 12:11:00,87.0,67.0,-100.00,East,90,0.0,0.0,52,-99.99,,,-99.99,,2013-06-28 17:11:00,
2013-06-28 12:22:00,87.0,67.0,-100.00,East,90,0.0,0.0,52,-99.99,,,-99.99,,2013-06-28 17:22:00,
2013-06-28 12:52:00,88.0,64.0,-100.00,East,90,0.0,0.0,45,-99.99,,,-99.99,,2013-06-28 17:52:00,
2013-06-28 13:22:00,88.0,65.0,-100.00,East,85,0.0,0.0,46,-99.99,,,-99.99,,2013-06-28 18:22:00,
2013-06-28 13:43:00,89.0,63.0,-100.00,ENE,75,0.0,0.0,43,-99.99,,,-99.99,,2013-06-28 18:43:00,
2013-06-28 13:52:00,89.0,63.0,-100.00,ENE,75,0.0,0.0,43,-99.99,,,-99.99,,2013-06-28 18:52:00,
2013-06-28 14:22:00,89.0,62.0,-100.00,East,85,0.0,0.0,41,-99.99,,,-99.99,,2013-06-28 19:22:00,
2013-06-28 14:43:00,89.0,64.0,-100.00,ENE,75,0.0,0.0,43,-99.99,,,-99.99,,2013-06-28 19:43:00,
2013-06-28 14:53:00,89.0,64.0,-100.00,ENE,75,0.0,0.0,43,-99.99,,,-99.99,,2013-06-28 19:53:00,
2013-06-28 15:22:00,90.0,64.0,-100.00,ENE,65,0.0,0.0,42,-99.99,,,-99.99,,2013-06-28 20:22:00,
2013-06-28 15:52:00,90.0,63.0,-100.00,ENE,65,0.0,0.0,41,-99.99,,,-99.99,,2013-06-28 20:52:00,
2013-06-28 16:23:00,89.0,63.0,-100.00,ENE,75,0.0,0.0,42,-99.99,,,-99.99,,2013-06-28 21:23:00,
2013-06-28 16:34:00,89.0,63.0,-100.00,ENE,75,0.0,0.0,42,-99.99,,,-99.99,,2013-06-28 21:34:00,
2013-06-28 16:43:00,89.0,63.0,-100.00,ENE,75,0.0,0.0,42,-99.99,,,-99.99,,2013-06-28 21:43:00,
2013-06-28 17:34:00,87.0,66.0,-100.00,East,85,0.0,0.0,50,-99.99,,,-99.99,,2013-06-28 22:34:00,
2013-06-28 17:43:00,87.0,67.0,-100.00,East,90,0.0,0.0,51,-99.99,,,-99.99,,2013-06-28 22:43:00,
2013-06-28 17:52:00,87.0,67.0,-100.00,East,90,0.0,0.0,51,-99.99,,,-99.99,,2013-06-28 22:52:00,
2013-06-28 18:11:00,88.0,68.0,-100.00,East,90,0.0,0.0,53,-99.99,,,-99.99,,2013-06-28 23:11:00,
2013-06-28 18:23:00,88.0,68.0,-100.00,East,90,0.0,0.0,53,-99.99,,,-99.99,,2013-06-28 23:23:00,
2013-06-28 18:43:00,86.0,64.0,-100.00,East,90,0.0,0.0,48,-99.99,,,-99.99,,2013-06-28 23:43:00,
2013-06-28 18:53:00,86.0,64.0,-100.00,East,90,0.0,0.0,48,-99.99,,,-99.99,,2013-06-28 23:53:00,
2013-06-28 19:11:00,85.0,64.0,-100.00,East,90,0.0,0.0,49,-99.99,,,-99.99,,2013-06-29 00:11:00,
2013-06-28 19:23:00,85.0,64.0,-100.00,East,90,0.0,0.0,49,-99.99,,,-99.99,,2013-06-29 00:23:00,
2013-06-28 19:33:00,85.0,64.0,-100.00,East,90,0.0,0.0,49,-99.99,,,-99.99,,2013-06-29 00:33:00,
2013-06-28 19:52:00,84.0,64.0,-100.00,East,95,0.0,0.0,50,-99.99,,,-99.99,,2013-06-29 00:52:00,
2013-06-28 20:11:00,83.0,61.0,-100.00,East,90,0.0,0.0,49,-99.99,,,-99.99,,2013-06-29 01:11:00,
2013-06-28 20:22:00,83.0,61.0,-100.00,East,90,0.0,0.0,49,-99.99,,,-99.99,,2013-06-29 01:22:00,
2013-06-28 20:42:00,82.0,59.0,-100.00,East,85,0.0,0.0,46,-99.99,,,-99.99,,2013-06-29 01:42:00,
2013-06-28 20:52:00,82.0,59.0,-100.00,East,85,0.0,0.0,46,-99.99,,,-99.99,,2013-06-29 01:52:00,
2013-06-28 21:11:00,80.0,59.0,-100.00,East,85,0.0,0.0,49,-99.99,,,-99.99,,2013-06-29 02:11:00,
2013-06-28 21:21:00,80.0,59.0,-100.00,East,85,0.0,0.0,49,-99.99,,,-99.99,,2013-06-29 02:21:00,
2013-06-28 21:31:00,79.0,59.0,-100.00,East,85,0.0,0.0,50,-99.99,,,-99.99,,2013-06-29 02:31:00,
2013-06-28 21:41:00,79.0,59.0,-100.00,East,90,0.0,0.0,51,-99.99,,,-99.99,,2013-06-29 02:41:00,
2013-06-28 21:51:00,79.0,59.0,-100.00,East,90,0.0,0.0,51,-99.99,,,-99.99,,2013-06-29 02:51:00,
2013-06-28 22:11:00,79.0,60.0,-100.00,East,85,0.0,0.0,52,-99.99,,,-99.99,,2013-06-29 03:11:00,
2013-06-28 22:21:00,79.0,60.0,-100.00,East,85,0.0,0.0,52,-99.99,,,-99.99,,2013-06-29 03:21:00,
2013-06-28 22:32:00,78.0,59.0,-100.00,East,80,0.0,0.0,52,-99.99,,,-99.99,,2013-06-29 03:32:00,
2013-06-28 22:51:00,78.0,59.0,-100.00,East,80,0.0,0.0,51,-99.99,,,-99.99,,2013-06-29 03:51:00,
2013-06-28 23:11:00,78.0,59.0,-100.00,ENE,60,0.0,0.0,52,-99.99,,,-99.99,,2013-06-29 04:11:00,
2013-06-28 23:23:00,78.0,59.0,-100.00,ENE,60,0.0,0.0,52,-99.99,,,-99.99,,2013-06-29 04:23:00,
2013-06-28 23:32:00,77.0,59.0,-100.00,ENE,60,0.0,0.0,53,-99.99,,,-99.99,,2013-06-29 04:32:00,
2013-06-28 23:41:00,77.0,60.0,-100.00,ENE,60,0.0,0.0,56,-99.99,,,-99.99,,2013-06-29 04:41:00,
2013-06-28 23:51:00,77.0,60.0,-100.00,ENE,60,0.0,0.0,56,-99.99,,,-99.99,,2013-06-29 04:51:00,